This is the latest recevied weather packets stored in our database for station/object WC4PEM-15. If no packets are shown the sender has not sent any weather packets the latest 10 day(s).
| Time | Temp. | Humidity | Pressure | Rain* | Wind** | Luminosity | Snow |
|---|---|---|---|---|---|---|---|
| 1787424215 | 32.22° C | 66% | 1015.7 hPa | 0 mm | - | - | - |
| 1787424129 | 32.22° C | 66% | 1015.7 hPa | 0 mm | - | - | - |
| 1787423965 | 32.78° C | 62% | 1015.5 hPa | 0 mm | - | - | - |
| 1787423920 | 32.78° C | 62% | 1015.5 hPa | 0 mm | - | - | - |
| 1787423829 | 32.78° C | 62% | 1015.5 hPa | 0 mm | - | - | - |
| 1787423530 | 32.22° C | 63% | 1015.8 hPa | 0 mm | - | - | - |
| 1787423358 | 32.78° C | 64% | 1015.7 hPa | 0 mm | - | - | - |
| 1787423229 | 32.78° C | 64% | 1015.7 hPa | 0 mm | - | - | - |
| 1787423033 | 32.22° C | 64% | 1015.8 hPa | 0 mm | - | - | - |
| 1787422929 | 32.22° C | 64% | 1015.8 hPa | 0 mm | - | - | - |
| 1787422723 | 32.22° C | 63% | 1015.9 hPa | 0 mm | - | - | - |
| 1787422629 | 32.22° C | 63% | 1015.9 hPa | 0 mm | - | - | - |
| 1787422423 | 32.78° C | 62% | 1016 hPa | 0 mm | - | - | - |
| 1787422330 | 32.78° C | 62% | 1016 hPa | 0 mm | - | - | - |
| 1787422122 | 32.22° C | 63% | 1016.2 hPa | 0 mm | - | - | - |
| 1787422030 | 32.22° C | 63% | 1016.2 hPa | 0 mm | - | - | - |
| 1787421802 | 32.22° C | 65% | 1016.2 hPa | 0 mm | - | - | - |
| 1787421730 | 32.22° C | 65% | 1016.2 hPa | 0 mm | - | - | - |
| 1787421546 | 32.22° C | 63% | 1016.1 hPa | 0 mm | - | - | - |
| 1787421430 | 32.22° C | 63% | 1016.1 hPa | 0 mm | - | - | - |
| 1787421211 | 32.22° C | 65% | 1016.1 hPa | 0 mm | - | - | - |
| 1787421130 | 32.22° C | 65% | 1016.1 hPa | 0 mm | - | - | - |
| 1787420992 | 32.22° C | 64% | 1016.1 hPa | 0 mm | - | - | - |
| 1787420923 | 32.22° C | 64% | 1016.1 hPa | 0 mm | - | - | - |
| 1787420830 | 32.22° C | 64% | 1016.1 hPa | 0 mm | - | - | - |
* Rain latest hour (hover to see other rain measurements)
** Current wind speed in m/s (hover to see current wind gust speed)